| time (UTC) | temp C | wind direction | speed KPH | gust KPH | rain 1hr cm | rain 24hr cm | rain mn cm | humidity % | barometer mb |
| 20260507143027 | 23 | 360 | 3.2 | 6.4 | 0.00 | 0.00 | 0.00 | 27 | 1012.0 |
| 20260507141519 | 21 | 360 | 0.0 | 3.2 | 0.00 | 0.00 | 0.00 | 33 | 1012.0 |
| 20260507140018 | 20 | 360 | 0.0 | 0.0 | 0.00 | 0.00 | 0.00 | 38 | 1012.0 |
| 20260507134515 | 20 | 360 | 0.0 | 1.6 | 0.00 | 0.00 | 0.00 | 38 | 1012.0 |
| 20260507133011 | 20 | 360 | 0.0 | 4.8 | 0.00 | 0.00 | 0.00 | 36 | 1011.9 |
| 20260507131510 | 20 | 360 | 0.0 | 3.2 | 0.00 | 0.00 | 0.00 | 37 | 1011.8 |
| 20260507130003 | 19 | 360 | 0.0 | 4.8 | 0.00 | 0.00 | 0.00 | 38 | 1011.7 |
| 20260507124602 | 19 | 360 | 3.2 | 6.4 | 0.00 | 0.00 | 0.00 | 36 | 1011.6 |
| 20260507123100 | 19 | 360 | 3.2 | 6.4 | 0.00 | 0.00 | 0.00 | 36 | 1011.7 |
| 20260507121607 | 18 | 360 | 3.2 | 4.8 | 0.00 | 0.00 | 0.00 | 39 | 1011.6 |
| 20260507114611 | 19 | 360 | 0.0 | 1.6 | 0.00 | 0.00 | 0.00 | 38 | 1011.4 |
| 20260507113053 | 20 | 360 | 0.0 | 4.8 | 0.00 | 0.00 | 0.00 | 35 | 1011.5 |
| 20260507111551 | 20 | 360 | 0.0 | 4.8 | 0.00 | 0.00 | 0.00 | 34 | 1011.5 |
| 20260507110053 | 20 | 360 | 0.0 | 4.8 | 0.00 | 0.00 | 0.00 | 34 | 1011.5 |
| 20260507104547 | 20 | 360 | 0.0 | 6.4 | 0.00 | 0.00 | 0.00 | 35 | 1011.8 |
| 20260507103047 | 20 | 360 | 0.0 | 4.8 | 0.00 | 0.00 | 0.00 | 33 | 1011.9 |
| 20260507101546 | 20 | 360 | 0.0 | 4.8 | 0.00 | 0.00 | 0.00 | 32 | 1011.9 |
| 20260507100043 | 20 | 360 | 1.6 | 6.4 | 0.00 | 0.00 | 0.00 | 33 | 1012.0 |
| 20260507094541 | 20 | 360 | 0.0 | 1.6 | 0.00 | 0.00 | 0.00 | 34 | 1012.2 |
| 20260507093048 | 20 | 360 | 1.6 | 6.4 | 0.00 | 0.00 | 0.00 | 35 | 1012.2 |
| 20260507091538 | 21 | 360 | 0.0 | 4.8 | 0.00 | 0.00 | 0.00 | 35 | 1012.2 |
| 20260507090039 | 21 | 360 | 0.0 | 6.4 | 0.00 | 0.00 | 0.00 | 32 | 1012.2 |
| 20260507084536 | 21 | 360 | 1.6 | 6.4 | 0.00 | 0.00 | 0.00 | 31 | 1012.3 |
| 20260507083034 | 22 | 360 | 3.2 | 8.0 | 0.00 | 0.00 | 0.00 | 29 | 1012.3 |
| 20260507081543 | 21 | 360 | 4.8 | 9.7 | 0.00 | 0.00 | 0.00 | 30 | 1012.4 |
| 20260507080029 | 23 | 360 | 0.0 | 4.8 | 0.00 | 0.00 | 0.00 | 31 | 1012.5 |
| 20260507074545 | 22 | 360 | 1.6 | 3.2 | 0.00 | 0.00 | 0.00 | 32 | 1012.5 |
| 20260507073026 | 23 | 360 | 0.0 | 0.0 | 0.00 | 0.00 | 0.00 | 28 | 1012.4 |
| 20260507071525 | 23 | 360 | 0.0 | 0.0 | 0.00 | 0.00 | 0.00 | 27 | 1012.3 |
| 20260507070022 | 24 | 360 | 0.0 | 3.2 | 0.00 | 0.00 | 0.00 | 25 | 1012.2 |
| 20260507064520 | 23 | 360 | 0.0 | 3.2 | 0.00 | 0.00 | 0.00 | 28 | 1012.3 |
| 20260507063024 | 23 | 360 | 0.0 | 0.0 | 0.00 | 0.00 | 0.00 | 26 | 1012.4 |
| 20260507061519 | 24 | 360 | 0.0 | 3.2 | 0.00 | 0.00 | 0.00 | 25 | 1012.3 |
| 20260507060019 | 24 | 360 | 0.0 | 0.0 | 0.00 | 0.00 | 0.00 | 25 | 1012.4 |
| 20260507054520 | 24 | 360 | 0.0 | 0.0 | 0.00 | 0.00 | 0.00 | 28 | 1012.3 |
| 20260507053019 | 25 | 360 | 0.0 | 0.0 | 0.00 | 0.00 | 0.00 | 25 | 1012.3 |
| 20260507051518 | 25 | 360 | 0.0 | 0.0 | 0.00 | 0.00 | 0.00 | 25 | 1012.3 |
| 20260507050025 | 25 | 360 | 1.6 | 6.4 | 0.00 | 0.00 | 0.00 | 23 | 1012.3 |
| 20260507044516 | 25 | 360 | 3.2 | 12.9 | 0.00 | 0.00 | 0.00 | 23 | 1012.1 |
| 20260507043016 | 26 | 360 | 3.2 | 8.0 | 0.00 | 0.00 | 0.00 | 21 | 1012.0 |
| 20260507041515 | 26 | 360 | 3.2 | 8.0 | 0.00 | 0.00 | 0.00 | 22 | 1011.9 |
| 20260507040013 | 26 | 360 | 1.6 | 8.0 | 0.00 | 0.00 | 0.00 | 22 | 1011.8 |
| 20260507034514 | 26 | 360 | 3.2 | 6.4 | 0.00 | 0.00 | 0.00 | 23 | 1011.6 |
| 20260507033019 | 26 | 360 | 3.2 | 9.7 | 0.00 | 0.00 | 0.00 | 22 | 1011.4 |
| 20260507031512 | 26 | 360 | 6.4 | 12.9 | 0.00 | 0.00 | 0.00 | 23 | 1011.2 |
| 20260507030011 | 26 | 360 | 6.4 | 9.7 | 0.00 | 0.00 | 0.00 | 22 | 1011.0 |
| 20260507024511 | 26 | 360 | 4.8 | 9.7 | 0.00 | 0.00 | 0.00 | 22 | 1010.8 |
| 20260507023011 | 26 | 360 | 4.8 | 9.7 | 0.00 | 0.00 | 0.00 | 22 | 1010.8 |
| 20260507021510 | 26 | 360 | 6.4 | 14.5 | 0.00 | 0.00 | 0.00 | 22 | 1010.6 |
| 20260507020010 | 27 | 360 | 6.4 | 16.1 | 0.00 | 0.00 | 0.00 | 21 | 1010.6 |
| 20260507014509 | 27 | 360 | 4.8 | 16.1 | 0.00 | 0.00 | 0.00 | 20 | 1010.5 |
| 20260507013009 | 27 | 360 | 8.0 | 14.5 | 0.00 | 0.00 | 0.00 | 21 | 1010.4 |
| 20260507011509 | 27 | 360 | 6.4 | 17.7 | 0.00 | 0.00 | 0.00 | 20 | 1010.5 |
| 20260507010010 | 27 | 360 | 8.0 | 14.5 | 0.00 | 0.00 | 0.00 | 20 | 1010.5 |
| 20260507004510 | 28 | 360 | 8.0 | 16.1 | 0.00 | 0.00 | 0.00 | 20 | 1010.5 |
| 20260507003006 | 27 | 360 | 12.9 | 17.7 | 0.00 | 0.00 | 0.00 | 19 | 1010.3 |
| 20260507001506 | 28 | 360 | 4.8 | 14.5 | 0.00 | 0.00 | 0.00 | 20 | 1010.4 |
| 20260507000004 | 27 | 360 | 8.0 | 16.1 | 0.00 | 0.00 | 0.00 | 20 | 1010.4 |
| 20260506234503 | 27 | 360 | 12.9 | 20.9 | 0.00 | 0.00 | 0.00 | 20 | 1010.5 |
| 20260506233002 | 27 | 360 | 4.8 | 12.9 | 0.00 | 0.00 | 0.00 | 20 | 1010.6 |
| 20260506231501 | 27 | 360 | 11.3 | 19.3 | 0.00 | 0.00 | 0.00 | 20 | 1010.7 |
| 20260506230059 | 27 | 360 | 8.0 | 20.9 | 0.00 | 0.00 | 0.00 | 20 | 1011.0 |
| 20260506224558 | 27 | 360 | 3.2 | 16.1 | 0.00 | 0.00 | 0.00 | 21 | 1011.1 |
| 20260506223156 | 27 | 41 | 1.6 | 12.9 | 0.00 | 0.00 | 0.00 | 20 | 1011.3 |
| 20260506221553 | 26 | 82 | 3.2 | 12.9 | 0.00 | 0.00 | 0.00 | 22 | 1011.5 |
| 20260506220052 | 26 | 275 | 6.4 | 20.9 | 0.00 | 0.00 | 0.00 | 21 | 1011.7 |
| 20260506214552 | 26 | 308 | 6.4 | 16.1 | 0.00 | 0.00 | 0.00 | 21 | 1011.9 |
| 20260506213102 | 26 | 257 | 4.8 | 11.3 | 0.00 | 0.00 | 0.00 | 22 | 1012.2 |
| 20260506211548 | 27 | 5 | 6.4 | 14.5 | 0.00 | 0.00 | 0.00 | 22 | 1012.4 |
| 20260506210047 | 27 | 40 | 4.8 | 14.5 | 0.00 | 0.00 | 0.00 | 20 | 1012.7 |
| 20260506204550 | 27 | 360 | 3.2 | 14.5 | 0.00 | 0.00 | 0.00 | 20 | 1012.9 |
| 20260506203044 | 27 | 123 | 3.2 | 14.5 | 0.00 | 0.00 | 0.00 | 21 | 1013.1 |
| 20260506201543 | 25 | 355 | 3.2 | 16.1 | 0.00 | 0.00 | 0.00 | 22 | 1013.1 |
| 20260506200041 | 25 | 17 | 11.3 | 17.7 | 0.00 | 0.00 | 0.00 | 22 | 1013.3 |
| 20260506194540 | 26 | 44 | 3.2 | 20.9 | 0.00 | 0.00 | 0.00 | 22 | 1013.5 |
| 20260506193039 | 25 | 325 | 4.8 | 14.5 | 0.00 | 0.00 | 0.00 | 25 | 1013.7 |
| 20260506191538 | 24 | 263 | 8.0 | 17.7 | 0.00 | 0.00 | 0.00 | 26 | 1013.9 |
| 20260506190035 | 25 | 68 | 3.2 | 17.7 | 0.00 | 0.00 | 0.00 | 25 | 1014.2 |
| 20260506184534 | 25 | 51 | 8.0 | 17.7 | 0.00 | 0.00 | 0.00 | 26 | 1014.2 |
| 20260506183032 | 23 | 235 | 3.2 | 19.3 | 0.00 | 0.00 | 0.00 | 28 | 1014.6 |
| 20260506181530 | 23 | 325 | 8.0 | 17.7 | 0.00 | 0.00 | 0.00 | 28 | 1014.7 |
| 20260506180025 | 23 | 348 | 3.2 | 8.0 | 0.00 | 0.00 | 0.00 | 30 | 1014.8 |
| 20260506174522 | 22 | 346 | 9.7 | 16.1 | 0.00 | 0.00 | 0.00 | 30 | 1014.8 |
| 20260506173019 | 22 | 360 | 1.6 | 6.4 | 0.00 | 0.00 | 0.00 | 31 | 1014.9 |
| 20260506171515 | 22 | 36 | 0.0 | 4.8 | 0.00 | 0.00 | 0.00 | 34 | 1014.9 |
| 20260506170012 | 21 | 219 | 0.0 | 4.8 | 0.00 | 0.00 | 0.00 | 35 | 1014.8 |
| 20260506164506 | 21 | 346 | 0.0 | 8.0 | 0.00 | 0.00 | 0.00 | 35 | 1014.7 |
| 20260506163003 | 20 | 29 | 4.8 | 8.0 | 0.00 | 0.00 | 0.00 | 36 | 1014.8 |
| 20260506161614 | 20 | 351 | 3.2 | 8.0 | 0.00 | 0.00 | 0.00 | 36 | 1014.7 |
| 20260506160053 | 20 | 236 | 1.6 | 6.4 | 0.00 | 0.00 | 0.00 | 38 | 1014.7 |
| 20260506154608 | 20 | 360 | 3.2 | 6.4 | 0.00 | 0.00 | 0.00 | 38 | 1014.7 |
| 20260506153057 | 20 | 360 | 0.0 | 4.8 | 0.00 | 0.00 | 0.00 | 37 | 1014.8 |
| 20260506151547 | 19 | 360 | 0.0 | 4.8 | 0.00 | 0.00 | 0.00 | 39 | 1014.8 |
| 20260506150042 | 18 | 162 | 0.0 | 4.8 | 0.00 | 0.00 | 0.00 | 43 | 1014.8 |
| 20260506144539 | 18 | 162 | 3.2 | 8.0 | 0.00 | 0.00 | 0.00 | 44 | 1014.8 |